Seattle Boeing, WA

6:33 AM PDT on June 26, 2019 (GMT -0700)
Boeing Field-King County International

Weather History for KBFI - November, 2018

Change the Weather History Date:

Saturday, November 10, 2018

  Actual Average Record
Temperature  
Mean Temperature 45 °F -  
Max Temperature 51 °F 52 °F 66 °F (1997)
Min Temperature 39 °F 41 °F 30 °F (1948)
Degree Days  
Heating Degree Days 20    
Moisture  
Dew Point 39 °F    
Average Humidity 81    
Maximum Humidity 93    
Minimum Humidity 61    
Precipitation  
Precipitation 0.01 in - - ()
Sea Level Pressure  
Sea Level Pressure 30.40 in    
Wind  
Wind Speed 4 mph (NE)    
Max Wind Speed 7 mph    
Max Gust Speed -    
Visibility 9 miles    
Events      
Averages and records for this station are not official NWS values.
T = Trace of Precipitation, MM = Missing Value Source: NWS Daily Summary

Daily Weather History Graph

Daily Weather History Graph

Search for Another Location

Airport or City:

Astronomy

Nov. 10, 2018 Rise Set
Actual Time 7:06 AM PST 4:38 PM PST
Civil Twilight 6:33 AM PST 5:11 PM PST
Nautical Twilight 5:56 AM PST 5:48 PM PST
Astronomical Twilight 5:20 AM PST 6:24 PM PST
Moon 10:05 AM PST (11/10) 7:07 PM PST (11/10)
Length of Visible Light 10h 38m
Length of Day
9h 31m
Waxing Crescent, 10% of the Moon is Illuminated
Nov 10
Waxing Crescent
Nov 15
First Quarter
Nov 22
Full
Nov 29
Last Quarter
Dec 6
New

Hourly Weather History & Observations

Time (PST) Temp. Windchill Dew Point Humidity Pressure Visibility Wind Dir Wind Speed Gust Speed Precip Events Conditions
12:53 AM 39.9 °F 35.8 °F 37.9 °F 93% 30.35 in 7.0 mi SSE 5.8 mph - N/A   Overcast
1:53 AM 39.9 °F 35.1 °F 37.9 °F 93% 30.35 in 5.0 mi SSE 6.9 mph - 0.00 in   Overcast
2:53 AM 39.9 °F 36.7 °F 37.9 °F 93% 30.35 in 8.0 mi SE 4.6 mph - N/A   Overcast
3:53 AM 39.9 °F 35.8 °F 37.0 °F 89% 30.34 in 8.0 mi SE 5.8 mph - 0.01 in   Overcast
4:35 AM 39.0 °F - 37.0 °F 93% 30.35 in 7.0 mi Calm Calm - N/A   Mostly Cloudy
4:53 AM 39.9 °F - 37.0 °F 89% 30.36 in 7.0 mi Calm Calm - N/A   Overcast
5:53 AM 41.0 °F - 37.9 °F 89% 30.36 in 5.0 mi Calm Calm - N/A   Overcast
6:53 AM 41.0 °F - 39.0 °F 93% 30.36 in 9.0 mi Calm Calm - N/A   Overcast
7:53 AM 43.0 °F - 39.9 °F 89% 30.39 in 8.0 mi Calm Calm - N/A   Overcast
8:53 AM 45.0 °F 41.8 °F 39.9 °F 82% 30.40 in 10.0 mi ENE 5.8 mph - N/A   Overcast
9:53 AM 46.0 °F 44.8 °F 39.9 °F 79% 30.41 in 10.0 mi Variable 3.5 mph - N/A   Mostly Cloudy
10:53 AM 46.0 °F 44.8 °F 39.0 °F 76% 30.43 in 10.0 mi Variable 3.5 mph - N/A   Mostly Cloudy
11:53 AM 48.9 °F - 39.9 °F 71% 30.41 in 10.0 mi NE 5.8 mph - N/A   Scattered Clouds
12:53 PM 48.9 °F - 39.9 °F 71% 30.41 in 10.0 mi NNW 5.8 mph - N/A   Mostly Cloudy
1:53 PM 51.1 °F - 37.9 °F 61% 30.42 in 10.0 mi North 6.9 mph - N/A   Scattered Clouds
2:53 PM 50.0 °F - 39.0 °F 66% 30.42 in 10.0 mi Variable 5.8 mph - N/A   Partly Cloudy
3:53 PM 50.0 °F - 37.9 °F 63% 30.41 in 10.0 mi NNE 5.8 mph - N/A   Partly Cloudy
4:53 PM 46.9 °F - 37.9 °F 71% 30.40 in 10.0 mi Calm Calm - N/A   Clear
5:53 PM 46.0 °F - 37.9 °F 73% 30.42 in 10.0 mi Calm Calm - N/A   Clear
6:53 PM 45.0 °F 43.5 °F 37.9 °F 76% 30.42 in 10.0 mi North 3.5 mph - N/A   Clear
7:53 PM 44.1 °F - 37.9 °F 79% 30.43 in 10.0 mi Calm Calm - N/A   Clear
8:53 PM 43.0 °F - 37.9 °F 82% 30.45 in 10.0 mi Calm Calm - N/A   Partly Cloudy
9:05 PM 44.1 °F 42.5 °F 39.0 °F 82% 30.45 in 10.0 mi NE 3.5 mph - N/A   Mostly Cloudy
9:53 PM 45.0 °F 43.5 °F 39.9 °F 82% 30.45 in 10.0 mi Variable 3.5 mph - N/A   Mostly Cloudy
10:53 PM 45.0 °F - 39.9 °F 82% 30.46 in 10.0 mi Calm Calm - N/A   Overcast
11:53 PM 42.1 °F 40.2 °F 37.9 °F 85% 30.46 in 10.0 mi North 3.5 mph - N/A   Scattered Clouds